Regional Weather Roundup
Issued by NWS Sioux Falls, SD

Home | Current Version | Previous Version | Text Only | Print | Product List | Glossary Off
Versions: 1 2 3 4 5 6 7 8 9 10 11 12 13 14 15 16 17 18 19 20 21 22 23 24 25 26 27 28 29 30 31 32 33 34 35 36 37 38 39 40 41 42 43 44 45 46 47 48 49 50

000
ASUS43 KFSD 180002
RWRFSD

WEATHER ROUNDUP FOR SE SOUTH DAKOTA/SW MINNESOTA/NW IOWA
NATIONAL WEATHER SERVICE SIOUX FALLS SD
700 PM CDT THU APR 17 2014

NOTE: "FAIR" INDICATES FEW OR NO CLOUDS BELOW 12,000 FEET WITH NO
SIGNIFICANT WEATHER AND OR OBSTRUCTIONS TO VISIBILITY.


SDZ038>040-050-052>070-180100-
SOUTHEAST SOUTH DAKOTA

CITY           SKY/WX    TMP DP  RH WIND       PRES   REMARKS
CHAMBERLAIN      N/A     44  25  47 SE12      30.19F
6HR MIN TEMP:  43; 6HR MAX TEMP:  49;

HURON          CLOUDY    44  18  35 SE7       30.23F
6HR MIN TEMP:  37; 6HR MAX TEMP:  45;

MADISON        FAIR      39  19  45 E8        30.25F
MITCHELL       CLOUDY    48  20  32 SE8       30.24F
6HR MIN TEMP:  42; 6HR MAX TEMP:  49;

SIOUX FALLS    PTSUNNY   43  23  45 NE3       30.26F
6HR MIN TEMP:  37; 6HR MAX TEMP:  46;

YANKTON        PTSUNNY   48  21  34 E6        30.25F
$$

MNZ071-072-080-081-089-090-097-098-180100-
SOUTHWEST MINNESOTA

CITY           SKY/WX    TMP DP  RH WIND       PRES   REMARKS
FAIRMONT       MOSUNNY   43  28  56 N9        30.29S
JACKSON        MOSUNNY   41  28  60 VRB5      30.27S
LUVERNE        MOSUNNY   43  27  52 NE5       30.28R
MARSHALL       SUNNY     36  21  55 N5        30.30S
6HR MIN TEMP:  34; 6HR MAX TEMP:  37;

MONTEVIDEO     SUNNY     43  19  39 N3        30.31R
PIPESTONE      MOSUNNY   39  16  38 CALM      30.26F
REDWOOD FALLS  SUNNY     38  25  59 N7        30.30S
TRACY          SUNNY     37  26  65 CALM      30.30R
WINDOM         MOSUNNY   39  27  60 N3        30.28S
WORTHINGTON    MOSUNNY   39  21  48 N7        30.29S
$$

IAZ001>003-012>014-020>022-031-032-NEZ013-014-SDZ071-180100-
NORTHWEST IOWA

CITY           SKY/WX    TMP DP  RH WIND       PRES   REMARKS
CHEROKEE       SUNNY     52  26  37 NW3       30.26S
DENISON        SUNNY     52  25  35 NE5       30.23S
ESTHERVILLE    SUNNY     42  29  59 N8        30.27R
SHELDON        MOSUNNY   45  27  49 CALM      30.25S
SIOUX CITY     PTSUNNY   51  23  33 N3        30.25F
6HR MIN TEMP:  45; 6HR MAX TEMP:  53;

SPENCER        SUNNY     45  28  51 N9        30.27S
6HR MIN TEMP:  39; 6HR MAX TEMP:  47;

STORM LAKE     SUNNY     46  27  46 NE7       30.26R
$$

ABBREVIATIONS USED IN REMARKS
   TC - TEMPERATURE IN CELSIUS
  WCI - WIND CHILL INDEX
   HX - HEAT INDEX
  VSB - VISIBILITY




USA.gov is the U.S. government's official web portal to all federal, state and local government web resources and services.